Regional Weather Roundup
Issued by NWS

Home | Current Version | Previous Version | Text Only | Print | Product List | Glossary On
Versions: 1 2 3 4 5 6 7 8 9 10 11 12 13 14 15 16 17 18 19 20 21 22 23 24 25 26 27 28 29 30 31 32 33 34 35 36 37 38 39 40 41 42 43 44 45 46 47 48 49 50
000
ASUS46 KPQR 311710
RWROR

OREGON REGIONAL WEATHER ROUNDUP
NATIONAL WEATHER SERVICE PORTLAND OR
900 AM PST SAT JAN 31 2015

NOTE: "FAIR" INDICATES FEW OR NO CLOUDS BELOW 12,000 FEET WITH
NO SIGNIFICANT WEATHER AND/OR OBSTRUCTIONS TO VISIBILITY.

ORZ001>013-311800-
NORTHWEST OREGON


CITY           SKY/WX    TMP DP  RH WIND       PRES   REMARKS
ASTORIA        MOSUNNY   39  37  92 E3        30.18S
NEWPORT        MOSUNNY   46  41  81 E9        30.19S
PORTLAND       FOG       33  33 100 W3        30.25S VSB 1/8
VANCOUVER WA   CLOUDY    32  31  96 N3        30.25S
SCAPPOOSE      FOG       36  35  96 CALM      30.24S VSB 1/4
HILLSBORO      FOG       30  30 100 NW3       30.23S VSB 1/4
AURORA         SUNNY     34  33  96 CALM      30.24S
MCMINNVILLE    FOG       32  31  96 CALM      30.24S VSB 1/4
SALEM          MOSUNNY   33  31  92 SE5       30.23R WCI  29
CORVALLIS      CLOUDY    36  34  93 CALM      30.24S VSB<1/4
EUGENE         FOG       38  37  97 CALM      30.23S VSB 1/8
$$

ORZ021-028-311800-
SOUTHWEST OREGON


CITY           SKY/WX    TMP DP  RH WIND       PRES   REMARKS
NORTH BEND     MOSUNNY   45  45 100 N5        30.15S
BROOKINGS      SUNNY     50  40  68 CALM      30.06S
ROSEBURG       CLOUDY    45  39  79 SW6       30.21R
SEXTON SUMMIT  SUNNY     50  25  37 SE8       30.14R
MEDFORD        FOG       32  32 100 SW3       30.22R VSB 1/4
$$

ORZ014>016-041-311800-
COLUMBIA GORGE


CITY           SKY/WX    TMP DP  RH WIND       PRES   REMARKS
TROUTDALE      PTSUNNY   33  32  96 NW7       30.23F FOG     WCI  27
THE DALLES     CLOUDY    40  33  76 E10       30.37S WCI  33
$$

ORZ029>031-041-044-049-050-061>064-502-503-505>511-311800-
EASTERN OREGON


CITY           SKY/WX    TMP DP  RH WIND       PRES   REMARKS
REDMOND        SUNNY     30  28  92 CALM      30.22R
BEND           SUNNY     28  25  86 CALM      30.22S
PRINEVILLE     SUNNY     32  30  93 CALM      30.22S
KLAMATH FALLS  SUNNY     30  22  72 CALM      30.21R
LAKEVIEW       SUNNY     34  23  64 E5        30.22S WCI  30
HERMISTON      CLOUDY    37  34  89 N5        30.35S FOG     WCI  33
PENDLETON      CLOUDY    33  32  96 S5        30.30S FOG     WCI  29
JOHN DAY       FOG       28  28  98 E3        30.25S VSB 1/2
MEACHAM        MOSUNNY   24  22  91 CALM      30.20S
LA GRANDE      SUNNY     27  21  80 N3        30.23R
BAKER CITY     SUNNY     29  25  85 VRB5      30.19R WCI  24
BURNS          FOG       27  25  92 CALM      30.23R VSB 1/2
ROME             N/A     29  24  82 SW6       30.19R WCI  23
ONTARIO        SUNNY     30  27  88 CALM      30.24R
$$


USA.gov is the U.S. government's official web portal to all federal, state and local government web resources and services.